SCP
0 0 0 0 0 0 0 0 0 0 0 0 0 0 0 0 0 0 0 0 0 0 0 0 0 0 0 0 0 0 1 1 1 1 1 2 2 2
0 0 0 0 0 0 0 0 0 0 0 0 0 0 0 0 0 0 0 0 0 0 0 0 0 0 1 0 0 0 0 1 1 1 1 2 2 2
0 0 0 0 0 0 0 0 0 0 0 0 0 0 0 0 0 0 0 0 0 0 0 0 0 0 1 0 0 0 0 0 0 1 1 1 2 2
0 0 0 0 0 0 0 0 0 0 0 0 0 0 0 0 0 0 0 0 0 0 0 0 0 0 1 0 0 0 0 0 0 0 1 1 1 1
0 0 0 0 0 0 0 0 0 0 0 0 0 0 0 0 0 0 0 0 0 0 0 0 0 1 1 0 0 0 0 0 0 0 0 1 1 1
0 0 0 0 0 0 0 0 0 0 0 0 0 0 0 0 0 0 0 0 0 0 0 0 0 0 0 0 0 0 0 0 0 0 0 0 0 0
0 0 0 0 0 0 0 0 0 0 0 0 0 0 0 0 0 0 0 0 0 0 0 0 0 0 0 0 0 0 0 0 0 0 0 0 0 0
0 0 0 0 0 0 0 0 0 0 0 0 0 0 0 0 0 0 0 0 0 0 0 0 0 0 0 0 0 0 0 0 0 0 0 0 0 0
0 0 0 0 0 0 0 0 0 0 0 0 0 0 0 0 0 0 0 0 0 0 0 0 0 0 0 0 1 0 0 0 0 0 0 0 0 0
0 0 0 0 0 0 0 0 0 0 0 0 0 0 0 0 0 0 0 0 0 0 0 0 0 0 0 1 1 0 0 0 0 0 0 0 0 0
0 0 0 0 0 0 0 0 0 0 0 0 0 0 0 0 0 0 0 0 0 0 0 0 0 0 0 1 0 0 0 0 0 0 0 0 0 0
0 0 0 0 0 0 0 0 0 0 0 0 0 0 0 0 0 0 0 0 0 0 0 0 0 0 0 1 1 0 0 0 0 0 0 0 0 0
0 0 0 0 0 0 0 0 0 0 0 0 0 0 0 0 0 0 0 0 0 0 0 0 0 0 0 1 1 1 0 0 0 0 0 0 0 0
0 0 0 0 0 0 0 0 0 0 0 0 0 0 0 0 0 0 0 0 0 0 0 0 0 0 0 0 1 1 0 0 0 0 0 0 0 0
0 0 0 0 0 0 0 0 0 0 0 0 0 0 0 0 0 0 0 0 0 0 0 0 0 0 0 0 0 0 0 0 0 0 0 0 0 0
0 0 0 0 0 0 0 0 0 0 0 0 0 0 0 0 0 0 0 0 0 0 0 0 0 0 0 0 0 0 0 0 0 0 0 0 0 0
0 0 0 0 0 0 0 0 0 0 0 0 0 0 0 0 0 0 0 0 0 0 0 0 0 0 0 0 0 0 0 0 0 0 0 0 0 0
0 0 0 0 0 0 0 0 0 0 0 0 0 0 0 0 0 0 0 0 0 0 0 0 0 0 0 0 0 0 0 0 0 0 0 0 0 0
0 0 0 0 0 0 0 0 0 0 0 0 0 0 0 0 0 0 0 0 0 0 0 0 0 0 0 0 0 0 0 0 0 0 0 0 0 0
0 0 0 0 0 0 0 0 0 0 0 0 0 0 0 0 0 0 0 0 0 0 0 0 0 0 0 0 0 0 0 0 0 0 0 0 0 0
0 0 0 0 0 0 0 0 0 0 0 0 0 0 0 0 0 0 0 0 0 0 0 0 0 0 0 0 0 0 0 0 0 0 0 0 0 0
0 0 0 0 0 0 0 0 0 0 0 0 0 0 0 0 0 0 0 0 0 0 0 0 0 0 0 0 0 0 0 0 0 0 0 0 0 0
0 0 0 0 0 0 0 0 0 0 0 0 0 0 0 0 0 0 0 0 0 0 0 0 0 0 0 0 0 0 0 0 0 0 0 0 0 0
Wind_Speed
8 9 8 8 8 8 9 9 9 12 12 9 7 9 9 8 14 9 6 15 20 22 22 21 20 20 20 19 17 16 14 13 11 16 23 28 29 29
7 9 8 8 8 8 8 9 8 9 11 8 8 10 11 12 17 12 9 21 22 23 23 23 22 21 21 20 17 16 14 12 12 16 22 27 28 28
9 9 10 10 8 8 8 9 8 8 11 10 8 9 11 11 11 10 10 9 11 22 24 24 23 22 21 20 17 16 13 12 11 14 20 25 27 26
10 10 11 10 10 9 8 10 9 9 9 13 10 9 10 11 11 11 11 11 10 19 23 24 23 22 21 20 18 16 12 11 10 12 17 21 25 26
11 10 10 10 10 10 11 11 9 9 7 9 11 9 8 9 11 11 12 9 11 14 20 22 23 23 21 20 19 16 12 10 9 10 14 19 22 26
11 11 10 10 11 11 11 11 10 8 7 8 9 9 8 8 8 9 10 8 9 11 14 15 18 21 22 21 20 17 13 10 9 9 11 16 19 24
11 9 10 14 18 15 12 11 9 7 7 8 9 8 7 7 8 7 10 11 11 8 7 9 8 8 10 17 18 16 14 11 10 9 10 15 18 22
8 8 9 11 16 21 25 22 18 12 10 8 8 8 9 8 8 9 9 10 8 5 6 8 7 7 8 8 13 15 14 12 10 10 11 14 17 21
7 7 8 9 14 10 15 17 16 20 19 12 9 9 10 9 9 11 9 10 11 9 8 8 6 7 7 9 15 15 14 12 10 10 11 13 15 19
7 7 7 7 10 14 8 8 8 10 14 10 9 10 10 9 10 10 10 11 12 11 9 7 6 6 6 6 13 15 13 11 10 10 12 13 14 16
6 7 8 6 17 22 11 10 11 9 13 18 19 17 17 16 12 6 6 7 8 6 4 5 5 4 4 5 8 14 13 11 11 11 13 15 15 15
5 6 12 15 20 21 9 9 12 10 9 11 12 13 10 11 14 6 5 6 6 6 4 4 4 3 3 3 4 6 7 9 11 12 14 16 17 11
6 6 7 19 20 20 16 10 15 14 10 10 9 8 7 6 6 6 6 7 7 7 5 5 4 4 2 3 4 4 4 4 6 8 13 18 18 13
7 7 9 19 20 19 15 18 21 17 9 9 8 8 8 7 6 7 8 8 10 11 10 7 5 5 3 2 4 4 3 4 5 6 8 15 16 15
8 16 18 20 17 12 17 21 16 10 9 10 9 9 9 9 8 7 6 7 9 10 9 9 7 6 5 2 2 4 3 3 4 6 8 10 11 12
8 12 17 17 14 14 13 11 9 10 10 9 10 9 9 8 7 7 5 5 3 3 5 6 6 5 3 2 1 3 3 4 5 6 7 7 8 9
8 5 5 6 7 6 7 7 7 9 10 10 10 10 9 9 8 8 6 5 4 4 5 4 4 4 2 2 2 3 3 2 4 6 8 7 7 9
10 7 8 8 8 8 8 8 8 9 10 10 10 10 10 10 9 8 7 5 5 5 5 5 5 3 2 3 8 3 3 2 2 5 7 8 6 7
7 6 7 8 8 7 7 6 7 8 8 9 10 10 10 10 9 9 9 7 6 5 5 5 4 3 2 2 6 11 3 2 3 4 5 6 6 7
5 7 8 8 8 7 7 6 6 7 7 8 9 9 10 10 10 10 9 9 7 6 6 5 5 5 3 1 2 6 12 4 4 7 7 8 8 11
7 7 8 8 7 7 7 6 6 6 7 7 8 9 9 9 9 10 9 14 10 7 7 6 6 8 2 1 4 5 8 16 13 7 7 11 10 7
7 8 8 8 8 7 6 6 5 5 6 6 7 8 8 9 10 11 10 10 8 7 7 6 6 5 4 4 6 6 6 8 15 21 18 10 7 9
7 7 8 8 7 6 6 6 6 5 5 6 7 7 8 8 8 9 9 9 9 9 8 7 6 5 5 5 6 7 11 10 9 13 14 19 25 30
Wind_Direction
300 301 303 303 302 303 301 297 296 302 304 304 305 305 308 303 300 298 283 281 278 273 271 269 269 270 272 275 278 281 284 273 253 218 204 203 205 204
296 299 302 303 304 302 303 303 297 295 298 301 302 302 306 306 302 303 299 293 284 278 272 268 266 265 267 267 271 273 278 269 250 221 208 203 203 203
294 298 298 301 301 304 304 303 302 299 297 301 298 299 299 299 299 295 291 284 278 275 270 266 261 258 259 260 262 265 269 267 246 224 210 205 202 198
285 289 293 300 300 301 299 299 297 294 295 304 304 301 298 298 297 296 294 284 274 271 267 263 259 254 252 253 254 256 260 265 244 224 211 205 201 195
274 278 283 290 294 294 293 293 293 296 294 296 301 300 299 301 307 302 297 287 282 274 268 262 255 250 248 247 247 246 247 252 238 223 210 202 197 193
267 269 275 280 284 286 292 293 295 297 296 296 297 299 300 305 310 315 312 304 293 284 271 263 252 245 242 241 241 238 236 241 231 219 210 199 193 189
267 265 272 291 304 309 312 310 310 307 304 298 296 299 302 313 312 312 310 309 298 273 272 264 251 236 228 234 235 231 227 229 225 217 212 200 191 185
276 269 276 292 304 318 318 320 328 322 309 300 297 296 297 298 302 303 305 307 303 312 322 286 256 235 221 217 218 216 216 217 214 209 205 196 189 184
286 280 292 303 316 299 307 325 325 320 316 309 299 290 288 287 290 292 291 291 284 292 303 281 258 240 222 217 209 206 208 206 202 202 196 188 183 179
294 288 286 289 303 312 325 322 305 302 306 305 287 281 279 274 267 274 283 288 283 268 247 259 255 238 222 207 203 200 199 197 194 198 190 184 179 174
305 311 318 305 313 331 341 323 314 309 321 323 320 314 309 305 297 284 282 288 290 285 255 247 257 238 210 195 196 195 194 194 193 194 186 179 174 167
314 319 328 324 328 338 339 323 320 327 330 323 320 315 310 302 304 290 271 271 276 285 302 309 278 250 194 180 176 181 186 193 194 191 183 177 169 167
329 323 314 327 337 340 342 329 336 346 333 322 317 312 307 295 285 271 254 248 249 259 293 331 303 290 230 159 161 170 168 170 180 184 180 173 172 171
330 319 317 335 344 345 343 344 350 348 332 329 328 326 322 314 301 285 267 250 241 247 265 283 282 297 306 160 147 150 158 164 167 174 173 169 173 173
332 337 342 347 348 341 343 351 352 342 339 339 336 332 325 315 309 301 285 267 254 245 250 251 253 274 280 264 140 145 143 160 171 166 161 166 173 170
332 335 342 344 347 345 347 346 345 346 348 339 336 332 329 330 330 327 318 315 297 283 261 258 266 267 273 284 173 144 138 154 168 159 151 152 158 162
345 333 328 333 340 340 342 344 345 348 350 345 344 343 344 346 345 343 339 341 345 339 333 324 304 281 286 338 149 131 128 133 157 152 148 142 151 158
357 339 339 340 342 344 345 344 345 350 351 349 350 349 349 350 350 349 353 355 356 349 345 336 331 328 351 31 25 92 93 104 135 139 138 133 135 144
356 337 336 337 337 337 338 339 339 340 343 348 352 352 352 354 356 357 359 359 358 354 348 342 347 353 37 48 9 15 53 104 117 109 115 118 124 139
342 337 336 334 335 335 335 336 335 338 345 349 352 353 354 356 359 1 360 359 355 352 354 359 4 4 15 36 40 16 21 57 113 111 107 98 87 97
339 337 334 332 332 332 332 332 333 336 344 348 352 354 355 357 359 359 359 1 4 358 359 355 339 338 329 37 78 52 35 43 62 91 118 118 110 107
335 333 331 329 330 329 330 332 335 340 347 350 350 353 355 358 1 359 359 359 359 355 348 343 345 358 24 69 90 86 65 54 52 53 51 75 125 137
328 327 326 326 327 327 330 334 340 345 351 352 352 353 355 358 359 360 358 359 359 359 0 1 6 24 43 67 85 87 82 74 68 66 57 73 91 103